Location: Starhoo Observatory
(41.8578°N, 70.9669°W)
Time: 04:19:20
(UTC-04:00)

ISS - Visible Passes

Search period start: 25 July 2014 00:00
Search period end: 04 August 2014 00:00
Orbit: 411 x 419 km, 51.6° (Epoch: 24 July)

Date Brightness Start Highest point End Pass type
(mag) Time Alt. Az. Time Alt. Az. Time Alt. Az.
25 Jul -1.4 02:14:23 31° NNE 02:14:23 31° NNE 02:16:29 10° NE visible
25 Jul -0.6 03:48:19 10° NW 03:50:36 17° N 03:52:54 10° NE visible
26 Jul -0.3 01:27:16 14° NE 01:27:16 14° NE 01:27:49 10° NE visible
26 Jul -0.8 03:00:08 15° NW 03:01:38 20° NNW 03:04:11 10° NE visible
26 Jul -0.4 04:37:06 10° NW 04:39:18 16° N 04:41:30 10° NE visible
27 Jul -1.0 02:13:02 24° N 02:13:02 24° N 02:15:33 10° NE visible
27 Jul -0.4 03:48:13 10° NW 03:50:20 15° N 03:52:26 10° NE visible
28 Jul -0.4 01:25:57 17° NNE 01:25:57 17° NNE 01:26:58 10° NE visible
28 Jul -0.3 02:59:13 10° NW 03:01:23 16° N 03:03:32 10° NE visible
28 Jul -0.6 04:36:24 10° NW 04:39:02 21° NNE 04:41:40 10° ENE visible
29 Jul -0.6 02:11:46 16° NNW 02:12:28 17° N 02:14:49 10° NE visible
29 Jul -0.3 03:47:48 10° NW 03:50:10 18° N 03:52:31 10° NE visible
30 Jul -0.3 01:24:46 17° NNE 01:24:46 17° NNE 01:26:13 10° NE visible
30 Jul -0.2 02:59:07 10° NW 03:01:17 16° N 03:03:27 10° NE visible
30 Jul -1.4 04:35:39 10° NW 04:38:46 33° NNE 04:41:52 10° E visible
31 Jul -0.2 02:10:42 12° NNW 02:12:25 15° N 02:14:32 10° NE visible
31 Jul -0.9 03:47:09 10° NW 03:50:01 25° NNE 03:52:53 10° ENE visible
01 Aug -0.2 01:23:54 16° N 01:23:54 16° N 01:25:46 10° NE visible
01 Aug -0.5 02:58:40 10° NW 03:01:15 20° NNE 03:03:50 10° ENE visible
01 Aug -3.0 04:35:03 10° NW 04:38:26 75° NE 04:41:48 10° ESE visible
02 Aug -0.3 02:10:21 11° NNW 02:12:29 17° N 02:14:49 10° NE visible
02 Aug -2.2 03:46:34 10° NW 03:49:51 46° NNE 03:53:07 10° ESE visible
02 Aug -1.3 20:31:26 10° SSE 20:32:39 12° SE 20:33:53 10° ESE visible
02 Aug -3.3 22:05:35 10° WSW 22:08:55 84° NW 22:09:43 49° NE visible
03 Aug 0.0 01:24:52 14° NNE 01:24:52 14° NNE 01:25:52 10° NE visible
03 Aug -1.4 02:58:09 10° NW 03:01:14 32° NNE 03:04:18 10° E visible
03 Aug -2.8 04:34:50 10° WNW 04:38:01 39° SW 04:41:11 10° SSE visible
03 Aug -3.3 21:17:11 10° SW 21:20:27 56° SE 21:23:45 10° ENE visible
03 Aug -1.0 22:54:30 10° W 22:57:23 26° NNW 22:59:07 17° NNE visible
